Hagerstown, MD

4:53 AM EDT on April 23, 2017 (GMT -0400)
Hagerstown Regional-Henson

Weather History for KHGR - January, 2015

Change the Weather History Date:

Monday, January 5, 2015

  Actual Average Record
Temperature  
Mean Temperature 31 °F 31 °F  
Max Temperature 42 °F 38 °F 64 °F (1997)
Min Temperature 20 °F 23 °F 10 °F (1999)
Degree Days  
Heating Degree Days 34 34  
Month to date heating degree days 145 170  
Since 1 July heating degree days 1921 2134  
Cooling Degree Days 0 0  
Month to date cooling degree days 0 0  
Year to date cooling degree days 0 0  
Moisture  
Dew Point 10 °F    
Average Humidity 43    
Maximum Humidity 57    
Minimum Humidity 28    
Precipitation  
Precipitation 0.00 in 0.10 in 0.50 in (2005)
Month to date precipitation 0.49 0.46  
Year to date precipitation 0.49 0.46  
Sea Level Pressure  
Sea Level Pressure 30.32 in    
Wind  
Wind Speed 18 mph (WNW)    
Max Wind Speed 35 mph    
Max Gust Speed 45 mph    
Visibility 10 miles    
Events      
T = Trace of Precipitation, MM = Missing Value Source: NWS Daily Summary

Daily Weather History Graph

Daily Weather History Graph

Search for Another Location

Airport or City:

Trip Planner

Search our weather history database for the weather conditions in past years. The results will help you decide how hot, cold, wet, or windy it might be!

Date:

Astronomy

Jan. 05, 2015 Rise Set
Actual Time 7:32 AM EST 5:00 PM EST
Civil Twilight 7:02 AM EST 5:30 PM EST
Nautical Twilight 6:28 AM EST 6:04 PM EST
Astronomical Twilight 5:55 AM EST 6:37 PM EST
Moon 5:52 PM EST (1/5) 7:28 AM EST (1/5)
Length of Visible Light 10h 28m
Length of Day
9h 28m
Full, 100% of the Moon is Illuminated
Jan 5
Full
Jan 13
Last Quarter
Jan 20
New
Jan 26
First Quarter
Feb 3
Full

Hourly Weather History & Observations

Time (EST) Temp. Windchill Dew Point Humidity Pressure Visibility Wind Dir Wind Speed Gust Speed Precip Events Conditions
12:53 AM 39.9 °F 30.0 °F 24.1 °F 53% 30.06 in 10.0 mi West 21.9 mph 36.8 mph N/A   Scattered Clouds
1:53 AM 39.0 °F 28.5 °F 21.9 °F 50% 30.07 in 10.0 mi West 23.0 mph 32.2 mph N/A   Mostly Cloudy
2:53 AM 39.0 °F 28.3 °F 21.0 °F 49% 30.09 in 10.0 mi West 24.2 mph 36.8 mph N/A   Overcast
3:53 AM 37.9 °F 27.9 °F 21.9 °F 53% 30.10 in 10.0 mi West 19.6 mph 31.1 mph N/A   Overcast
4:53 AM 37.0 °F 24.3 °F 18.0 °F 46% 30.12 in 10.0 mi WNW 31.1 mph 40.3 mph N/A   Overcast
5:53 AM 36.0 °F 23.2 °F 17.1 °F 46% 30.16 in 10.0 mi WNW 28.8 mph 40.3 mph N/A   Overcast
6:53 AM 35.1 °F 25.5 °F 18.0 °F 50% 30.19 in 10.0 mi WNW 15.0 mph 29.9 mph N/A   Overcast
7:53 AM 34.0 °F 22.4 °F 18.0 °F 52% 30.24 in 10.0 mi WNW 20.7 mph 33.4 mph N/A   Mostly Cloudy
8:53 AM 33.1 °F 20.3 °F 15.1 °F 48% 30.28 in 10.0 mi West 24.2 mph 32.2 mph N/A   Overcast
9:53 AM 32.0 °F 17.9 °F 12.0 °F 44% 30.33 in 10.0 mi WNW 28.8 mph 34.5 mph N/A   Mostly Cloudy
10:53 AM 32.0 °F 18.9 °F 8.1 °F 37% 30.35 in 10.0 mi West 24.2 mph 32.2 mph N/A   Clear
11:12 AM - - - N/A% - - North - - N/A   Unknown
11:53 AM 32.0 °F 18.6 °F 3.9 °F 31% 30.34 in 10.0 mi West 25.3 mph - N/A   Clear
12:53 PM 32.0 °F 22.1 °F 7.0 °F 35% 30.33 in 10.0 mi NW 13.8 mph - N/A   Partly Cloudy
1:53 PM 32.0 °F 19.5 °F 3.9 °F 31% 30.35 in 10.0 mi West 21.9 mph 33.4 mph N/A   Clear
2:53 PM 30.0 °F 16.6 °F 1.0 °F 29% 30.38 in 10.0 mi NW 23.0 mph 31.1 mph N/A   Clear
3:53 PM 28.9 °F 15.8 °F -0.0 °F 29% 30.40 in 10.0 mi West 20.7 mph 27.6 mph N/A   Clear
4:53 PM 26.1 °F 15.0 °F 3.0 °F 37% 30.43 in 10.0 mi WNW 12.7 mph - N/A   Clear
5:53 PM 25.0 °F 12.2 °F 1.9 °F 37% 30.45 in 10.0 mi WNW 16.1 mph - N/A   Clear
6:53 PM 23.0 °F 13.1 °F 3.0 °F 42% 30.48 in 10.0 mi NW 9.2 mph - N/A   Clear
7:53 PM 21.9 °F 11.0 °F 3.9 °F 46% 30.49 in 10.0 mi NW 10.4 mph - N/A   Clear
8:53 PM 21.9 °F 13.4 °F 3.0 °F 44% 30.50 in 10.0 mi NW 6.9 mph - N/A   Clear
9:53 PM 21.9 °F 13.4 °F 3.0 °F 44% 30.47 in 10.0 mi NW 6.9 mph - N/A   Clear
10:53 PM 21.0 °F 12.4 °F 3.9 °F 48% 30.49 in 10.0 mi NW 6.9 mph - N/A   Clear
11:53 PM 21.0 °F 16.2 °F 3.9 °F 48% 30.47 in 10.0 mi East 3.5 mph - N/A   Clear